Theta_e
330 329 332 330 330 330 330 328 326 325 323 324 323 324 323 323 321 318 316 315 313 311 312 313 316 315 317 317 317 316 316 315 315 315 315 314 313 311
330 330 331 332 330 330 331 329 328 326 325 324 323 323 323 323 322 319 317 316 314 313 311 312 314 316 317 317 316 316 316 315 315 315 315 313 312 309
329 329 329 331 330 331 331 330 329 327 325 324 323 323 322 323 322 320 318 315 315 315 312 312 311 314 316 316 315 315 316 316 315 315 313 312 310 308
329 329 330 330 329 331 331 328 328 327 325 323 323 323 323 323 322 321 319 317 316 317 313 314 313 312 311 312 315 316 316 315 314 313 312 311 308 304
328 328 328 329 330 330 328 327 327 325 324 325 324 323 322 321 321 321 320 319 318 318 315 316 317 316 314 312 314 315 315 314 312 311 308 310 305 298
328 328 328 328 329 329 327 326 324 322 325 324 324 323 322 321 319 319 319 318 318 318 315 316 317 317 316 315 315 315 315 312 311 309 306 305 300 292
327 327 327 328 328 327 325 323 323 324 324 324 323 322 322 320 318 317 313 317 316 317 315 316 316 315 315 315 315 314 312 310 307 307 302 300 294 289
326 327 326 326 326 326 324 324 325 325 325 325 323 322 322 321 317 315 313 312 310 313 313 313 314 313 313 313 311 310 308 306 305 301 298 293 290 285
325 327 327 326 325 325 325 324 325 324 323 323 322 321 321 321 320 315 313 313 315 315 313 306 307 306 308 305 305 305 304 302 302 299 297 293 285 285
323 323 325 325 324 324 323 322 323 322 322 321 322 322 321 321 321 320 317 309 307 308 309 308 304 301 301 301 300 300 299 300 299 298 296 286 285 284
321 323 323 321 318 324 323 323 322 322 322 322 322 321 321 321 319 315 310 307 303 303 305 307 303 297 295 296 295 295 296 295 295 294 290 285 284 283
320 323 323 322 324 323 323 323 322 321 322 322 322 322 321 320 319 318 315 311 305 300 301 303 306 299 290 290 291 292 291 291 291 291 286 285 283 283
320 321 321 320 322 323 323 323 321 321 322 322 321 321 319 316 314 311 310 308 307 305 309 306 304 299 297 293 289 289 289 289 289 286 284 283 283 283
317 319 321 320 319 323 323 322 322 322 321 321 320 319 316 312 310 308 305 302 302 304 306 300 303 301 299 296 291 286 287 287 287 284 283 283 283 282
313 316 316 317 318 320 321 321 321 320 321 320 319 318 316 312 309 306 301 300 299 299 300 301 300 299 300 302 296 287 286 287 284 282 283 283 283 283
309 312 315 314 316 319 317 319 319 319 318 317 316 313 309 305 302 300 298 297 297 297 298 297 296 298 296 295 295 291 289 287 283 282 282 282 283 283
300 303 308 307 309 311 311 316 316 315 314 312 309 307 303 301 298 296 296 296 296 295 294 292 293 293 292 292 289 288 286 282 282 282 282 282 282 282
295 297 301 302 301 305 309 309 310 309 308 306 304 301 299 297 295 293 294 295 295 292 291 290 289 290 288 283 283 283 282 282 282 282 282 282 282 282
292 293 296 298 298 298 302 301 302 301 301 301 301 296 295 293 293 292 292 293 292 290 289 288 289 290 286 283 282 282 282 282 282 282 281 281 281 281
288 290 292 293 294 294 294 293 295 294 295 295 295 293 292 292 291 291 291 291 290 288 287 285 282 282 283 283 282 281 281 281 281 281 281 281 281 280
285 286 288 289 289 288 288 289 290 288 289 290 290 290 290 290 290 290 289 288 287 283 281 281 281 282 282 282 282 281 280 280 280 280 280 280 280 280
282 283 284 285 286 286 286 286 285 284 285 286 286 287 288 288 287 286 283 281 281 282 282 281 280 280 281 280 280 280 279 279 279 279 279 279 279 281
280 280 281 282 282 283 284 285 285 284 285 285 285 285 285 284 283 283 283 283 281 280 280 279 279 279 279 279 279 278 278 278 278 278 278 279 279 279
Wind_Speed
37 37 39 39 40 41 40 38 32 18 30 33 34 32 38 44 40 35 36 35 35 35 35 32 32 32 30 29 29 29 29 25 22 21 19 18 19 20
36 36 39 41 38 35 38 36 38 34 23 27 33 33 33 40 46 42 39 38 38 38 37 36 37 34 33 32 32 31 28 26 26 24 22 21 20 20
34 36 34 38 39 38 35 32 34 38 36 30 35 33 33 37 44 44 43 40 42 41 40 39 38 37 37 36 33 30 30 29 27 27 21 19 18 19
36 35 36 35 38 37 34 32 34 38 35 36 37 38 38 39 42 48 46 44 44 43 43 41 39 38 38 36 35 34 33 33 31 25 19 19 18 18
35 36 37 36 38 39 32 31 35 36 30 39 37 38 41 42 45 49 50 50 48 45 45 43 40 40 39 39 37 37 36 34 29 26 21 20 19 16
34 34 35 38 36 37 32 33 35 34 29 37 35 43 42 44 49 51 54 51 50 49 48 47 44 43 43 42 40 40 41 36 32 26 22 18 18 12
35 32 31 35 37 32 31 32 34 32 35 33 39 43 42 44 50 52 52 55 51 51 50 50 48 47 46 46 44 43 43 36 31 25 19 19 16 11
38 33 30 32 34 32 33 33 32 32 35 35 37 40 40 43 49 51 52 52 48 48 51 53 53 51 48 46 46 43 38 33 29 22 19 18 13 11
30 35 38 37 32 31 32 31 31 32 35 36 34 39 40 39 47 51 57 60 61 59 55 49 48 46 44 40 39 37 33 30 28 21 19 15 13 13
30 32 36 35 34 31 33 34 35 34 33 33 33 35 31 32 35 41 47 58 51 50 53 52 48 44 41 37 34 31 27 27 23 19 18 15 15 17
34 33 31 32 34 33 31 32 31 29 31 32 32 34 31 32 36 43 48 53 49 45 53 47 50 43 38 34 31 27 26 23 20 20 18 16 17 18
34 31 32 30 33 31 35 33 33 31 29 30 30 36 35 39 41 38 44 54 54 42 53 50 49 48 30 31 29 26 22 21 20 18 17 17 20 19
31 34 33 33 35 34 34 33 30 25 27 30 33 31 37 40 40 40 42 49 59 48 51 56 51 50 30 32 32 28 25 23 21 18 18 20 19 18
29 32 33 36 36 39 35 35 31 28 29 30 29 30 34 39 39 38 40 45 48 53 36 55 54 55 50 28 34 33 27 24 21 19 19 18 17 17
27 31 29 33 39 42 39 31 31 31 32 32 31 31 34 37 39 38 40 41 45 41 37 22 47 46 43 38 35 36 31 26 21 22 19 16 15 16
21 25 31 28 32 32 32 30 29 30 30 29 28 28 29 31 32 33 36 38 37 29 25 30 34 27 33 19 19 29 26 17 26 22 19 17 15 15
16 17 22 24 28 30 29 27 26 27 27 25 25 25 28 28 28 30 33 35 34 32 31 30 25 25 24 23 23 21 24 19 20 21 19 16 15 15
14 17 18 22 24 27 27 27 26 26 24 25 24 26 28 28 29 30 31 31 32 31 31 32 35 34 28 22 18 24 24 19 17 19 15 14 14 14
14 16 18 20 22 23 25 26 25 25 25 25 26 30 30 30 31 32 32 34 35 34 34 33 30 26 28 24 25 22 20 19 16 14 13 13 13 13
14 15 16 17 19 21 23 26 25 26 26 28 30 32 32 34 35 34 33 34 36 36 34 27 23 20 22 24 24 23 19 15 13 12 11 10 10 11
9 11 13 15 17 20 22 23 25 27 29 31 33 34 35 36 37 36 35 34 33 32 31 28 23 19 16 15 20 20 16 13 12 11 9 8 7 7
4 7 9 12 15 18 21 23 26 29 32 34 36 37 37 37 37 36 34 35 32 30 28 27 23 19 17 16 18 17 14 11 9 8 8 8 7 3
7 9 12 14 16 18 19 22 25 28 30 33 36 37 37 37 36 34 32 30 30 29 28 26 23 20 18 16 15 14 10 8 6 5 5 6 7 8
Wind_Direction
243 241 244 246 242 242 237 238 231 222 237 247 247 251 242 231 230 227 227 224 223 223 224 216 214 220 223 223 228 232 239 244 244 254 266 280 290 293
243 243 244 242 244 244 239 237 240 240 238 255 256 254 254 241 233 226 224 224 223 223 222 222 218 221 226 228 233 238 244 247 248 256 266 280 285 289
242 244 243 241 244 241 235 242 244 241 242 247 252 264 251 247 235 227 223 220 221 222 223 225 226 225 229 233 237 242 244 247 249 253 261 273 276 283
243 242 241 243 242 242 232 245 244 240 243 242 254 253 245 245 241 230 226 221 220 221 222 224 226 230 232 234 237 242 244 246 248 248 263 270 270 265
245 245 243 242 244 234 238 244 243 247 244 242 247 252 244 234 235 229 228 225 219 219 220 223 226 230 232 235 239 245 245 250 250 247 251 263 261 246
244 246 244 242 241 233 240 244 246 242 246 257 249 248 246 244 234 225 221 218 219 216 217 220 223 228 230 232 238 242 242 244 243 243 250 251 242 219
242 246 246 242 240 241 239 235 241 240 253 246 239 245 247 240 236 226 220 216 209 212 212 214 219 223 225 231 238 240 236 242 238 242 235 235 216 200
252 236 239 240 238 238 235 239 243 240 238 240 246 251 250 252 235 226 218 206 197 206 206 207 213 215 221 226 230 231 235 235 236 229 220 212 196 187
260 253 242 240 236 234 236 241 237 242 246 249 250 249 257 256 250 232 224 218 211 207 207 204 206 212 217 218 223 227 226 225 228 220 222 199 184 202
255 262 250 251 232 236 232 236 241 240 242 245 246 254 262 265 266 257 241 218 213 208 204 201 208 210 212 216 220 221 220 223 221 228 209 177 195 211
251 255 256 236 246 244 228 229 233 234 236 243 249 256 261 261 261 241 228 217 209 209 203 208 204 204 204 208 210 210 215 218 218 210 187 179 204 210
249 252 251 253 232 235 229 221 225 232 237 241 244 247 254 256 258 259 250 227 215 202 206 204 209 204 191 204 207 209 207 208 205 192 169 191 206 210
253 242 248 239 232 232 227 226 235 234 240 237 244 243 244 246 246 244 246 233 224 214 215 208 211 204 199 195 199 205 205 202 192 175 187 201 206 209
258 250 242 236 244 240 236 231 231 233 236 237 242 243 242 240 239 237 233 224 227 227 226 207 212 207 201 183 190 197 195 189 184 185 197 199 202 207
263 251 250 243 240 243 230 227 234 235 233 231 234 235 235 235 235 228 222 221 221 223 226 226 217 210 206 208 193 188 182 184 180 196 196 199 206 210
277 258 247 244 239 239 235 233 229 225 227 232 232 230 228 223 221 221 217 213 216 207 204 204 206 205 199 200 191 177 178 179 190 192 195 203 209 214
295 264 244 231 227 221 217 217 218 222 221 222 219 215 213 210 210 211 212 211 206 188 183 185 189 180 178 169 155 166 178 180 185 191 199 208 216 224
282 261 242 229 223 219 212 210 211 212 213 211 203 201 196 195 196 193 196 199 195 175 172 167 165 162 150 141 162 172 177 179 177 189 199 207 218 227
273 256 245 234 228 218 211 208 203 199 201 197 191 189 184 183 185 178 175 170 163 161 159 157 158 160 149 150 157 169 178 180 183 190 201 210 217 232
267 255 244 235 227 219 208 199 190 188 185 183 179 180 175 173 169 165 164 161 156 151 147 145 149 156 162 159 159 168 172 181 188 198 211 222 225 229
267 247 232 224 212 203 196 187 180 177 174 172 169 169 164 164 159 155 150 148 143 141 143 146 148 152 153 150 153 159 169 179 188 197 210 220 234 245
222 216 202 201 199 194 186 177 169 166 162 162 160 158 155 152 145 140 139 141 144 146 147 145 144 148 151 152 151 155 162 171 185 197 210 222 216 201
148 159 159 162 167 169 170 168 164 158 156 152 148 145 143 140 137 139 140 145 147 144 142 141 142 145 146 146 148 150 155 165 185 205 226 227 227 234